Location: Hilina Pali Trail
(19.2864°N, 155.2806°W)
Time: 13:48:00
(UTC+00:00)

Daily predictions for brighter satellites

Satellite Brightness Start Highest point End
(mag) Time Altitude Azimuth Time Altitude Azimuth Time Altitude Azimuth
CZ-4C R/B 3.8 14:15:38 26° ENE 14:15:38 26° ENE 14:18:14 10° NE
ATLAS 3B R/B 4.3 14:37:56 10° S 14:44:44 36° ESE 14:51:27 10° NE
SEDSat Delta rocket 4.4 14:47:45 30° SE 14:47:45 30° SE 14:49:52 10° ESE
Cosmos 1943 Rocket 4.3 14:50:57 13° N 14:50:57 13° N 14:51:30 10° N
Meteor 2-10 Rocket 3.7 14:43:11 10° S 14:48:09 63° E 14:53:05 10° NNE
Cosmos 2221 Rocket 4.0 14:53:56 10° S 14:58:24 62° E 15:02:54 10° NNE
Atlas Centaur 2 2.6 15:02:57 30° SSE 15:02:57 30° SSE 15:05:23 10° SE
OAO 3 Rocket 4.1 15:07:03 33° S 15:07:03 33° S 15:10:27 10° SSE
SJ-6F 4.3 15:02:58 10° N 15:06:52 80° NNE 15:06:52 80° NNE
Meteor 1-26 Rocket 4.1 15:01:20 10° S 15:07:06 75° W 15:12:46 10° N
Cosmos 1420 Rocket 3.8 15:17:08 10° SSW 15:22:17 74° WNW 15:27:27 10° N
NOAA 6 4.0 15:24:01 10° N 15:29:03 58° WNW 15:34:03 10° SSW
Okean 1-7 3.0 15:26:28 10° SSW 15:30:41 57° W 15:34:53 10° N
Thor Agena Rocket 3.5 15:25:44 10° SSE 15:31:00 88° WSW 15:36:14 10° NNW
Nadezhda 2 Rocket 4.4 15:26:25 10° NNW 15:32:23 58° W 15:38:25 10° S
Ariane Rocket 3.7 15:28:24 10° NNE 15:33:21 55° E 15:38:18 10° S
Sich 1 Rocket 3.7 15:33:37 10° NNW 15:37:57 48° W 15:42:13 10° SSW
SWIFT 4.4 15:36:59 10° SSW 15:40:18 22° SSE 15:43:37 10° ESE
Palapa 6 Rocket 4.5 15:35:48 24° WNW 15:40:33 68° N 15:48:36 10° E
Cosmos 1908 Rocket 3.9 15:40:02 10° NNW 15:44:15 42° W 15:48:27 10° SSW
Cosmos 1932 4.4 15:41:37 10° SSW 15:47:47 64° WNW 15:54:06 10° NNE
SKYMED 2 3.8 15:43:56 10° SSE 15:48:15 71° ENE 15:52:33 10° N
Cosmos 1782 Rocket 3.5 15:45:17 10° N 15:49:43 72° W 15:54:06 10° S
Cosmos 1745 Rocket 4.1 15:50:50 10° N 15:56:58 78° E 16:03:05 10° S
IUS-9 SRM-1 2.1 15:56:54 18° W 15:58:53 38° SSW 16:00:41 10° SE
CZ-4C R/B 3.6 16:00:54 13° WNW 16:01:51 14° NW 16:04:30 10° NNW
NATO 3D Rocket 3.9 15:57:24 15° W 16:03:35 73° SSW 16:08:53 10° ESE
Cosmos 1674 Rocket 4.0 16:00:43 10° S 16:05:02 67° E 16:09:23 10° N
USA 238 DEB 3.8 15:58:09 10° SSW 16:05:10 88° ESE 16:12:12 10° NNE
USA 238 3.8 15:58:14 10° SSW 16:05:16 88° ESE 16:12:17 10° NNE
Cosmos 1782 3.3 16:03:25 10° SSW 16:07:05 37° W 16:10:46 10° NNW
USA 81 4.1 16:02:18 10° SSW 16:07:26 54° W 16:12:36 10° N
Meteor 1-28 Rocket 3.1 16:05:06 10° S 16:08:47 84° W 16:12:30 10° NNW
Okean 2 Rocket 3.1 16:05:48 10° NNW 16:10:05 55° W 16:14:23 10° S
Cosmos 1833 4.3 16:06:38 10° NNW 16:12:03 55° WSW 16:17:31 10° S
Meteor 1-27 Rocket 3.9 16:07:36 10° S 16:13:15 84° E 16:19:03 10° N
Cosmos 407 Rocket 4.3 16:11:30 10° NW 16:16:07 31° W 16:20:43 10° SSW
Cosmos 676 Rocket 4.3 16:13:56 10° NNW 16:18:58 46° W 16:24:02 10° S
GPS 2-17 Rocket1 3.9 16:15:03 10° W 16:19:10 38° SSW 16:23:23 10° SE
IRS-1A Rocket 4.3 16:16:05 10° NNE 16:21:38 87° W 16:27:07 10° SSW
VEP-3 3.5 16:27:14 10° WSW 16:45:54 88° NNW 16:51:27 10° ENE
